| time (UTC) | temp C | wind direction | speed KPH | gust KPH | rain 1hr cm | rain 24hr cm | rain mn cm | humidity % | barometer mb |
| 20260904022002 | 26 | 0 | 0.0 | 0.0 | 0.00 | 0.00 | 0.00 | 77 | 1014.9 |
| 20260904021502 | 27 | 0 | 0.0 | 0.0 | 0.00 | 0.00 | 0.00 | 76 | 1014.9 |
| 20260904021001 | 27 | 0 | 0.0 | 0.0 | 0.00 | 0.00 | 0.00 | 76 | 1014.9 |
| 20260904020502 | 27 | 0 | 0.0 | 0.0 | 0.00 | 0.00 | 0.00 | 76 | 1014.9 |
| 20260904020002 | 27 | 0 | 0.0 | 0.0 | 0.00 | 0.00 | 0.00 | 75 | 1014.9 |
| 20260904015502 | 27 | 0 | 0.0 | 0.0 | 0.00 | 0.00 | 0.00 | 75 | 1015.0 |
| 20260904015002 | 27 | 0 | 0.0 | 0.0 | 0.00 | 0.00 | 0.00 | 74 | 1015.0 |
| 20260904014502 | 27 | 0 | 0.0 | 0.0 | 0.00 | 0.00 | 0.00 | 74 | 1015.0 |
| 20260904014002 | 27 | 0 | 0.0 | 0.0 | 0.00 | 0.00 | 0.00 | 74 | 1015.0 |
| 20260904013502 | 27 | 0 | 0.0 | 0.0 | 0.00 | 0.00 | 0.00 | 74 | 1015.0 |
| 20260904013023 | 27 | 0 | 0.0 | 0.0 | 0.00 | 0.00 | 0.00 | 73 | 1014.9 |
| 20260904012502 | 27 | 0 | 0.0 | 0.0 | 0.00 | 0.00 | 0.00 | 74 | 1015.0 |
| 20260904012002 | 27 | 0 | 0.0 | 0.0 | 0.00 | 0.00 | 0.00 | 73 | 1015.0 |
| 20260904011522 | 27 | 0 | 0.0 | 0.0 | 0.00 | 0.00 | 0.00 | 72 | 1015.0 |
| 20260904011002 | 28 | 0 | 0.0 | 0.0 | 0.00 | 0.00 | 0.00 | 71 | 1015.0 |
| 20260904010502 | 28 | 0 | 0.0 | 0.0 | 0.00 | 0.00 | 0.00 | 71 | 1014.9 |
| 20260904010002 | 28 | 0 | 0.0 | 0.0 | 0.00 | 0.00 | 0.00 | 70 | 1014.7 |
| 20260904005502 | 28 | 0 | 0.0 | 0.0 | 0.00 | 0.00 | 0.00 | 70 | 1014.8 |
| 20260904005002 | 28 | 0 | 0.0 | 0.0 | 0.00 | 0.00 | 0.00 | 70 | 1014.8 |
| 20260904004502 | 28 | 0 | 0.0 | 0.0 | 0.00 | 0.00 | 0.00 | 69 | 1014.6 |
| 20260904004002 | 28 | 0 | 0.0 | 0.0 | 0.00 | 0.00 | 0.00 | 69 | 1014.5 |
| 20260904003501 | 28 | 0 | 0.0 | 0.0 | 0.00 | 0.00 | 0.00 | 68 | 1014.4 |
| 20260904003002 | 29 | 0 | 0.0 | 0.0 | 0.00 | 0.00 | 0.00 | 67 | 1014.4 |
| 20260904002502 | 29 | 0 | 0.0 | 0.0 | 0.00 | 0.00 | 0.00 | 67 | 1014.3 |
| 20260904002023 | 30 | 0 | 0.0 | 0.0 | 0.00 | 0.00 | 0.00 | 66 | 1014.3 |
| 20260904001502 | 30 | 0 | 0.0 | 0.0 | 0.00 | 0.00 | 0.00 | 65 | 1014.3 |
| 20260904001002 | 30 | 0 | 0.0 | 0.0 | 0.00 | 0.00 | 0.00 | 64 | 1014.2 |
| 20260904000502 | 30 | 0 | 0.0 | 0.0 | 0.00 | 0.00 | 0.00 | 63 | 1014.3 |
| 20260904000023 | 31 | 0 | 0.0 | 0.0 | 0.00 | 0.00 | 0.00 | 62 | 1014.3 |
| 20260903235502 | 31 | 0 | 0.0 | 0.0 | 0.00 | 0.00 | 0.00 | 61 | 1014.3 |
| 20260903235023 | 31 | 0 | 0.0 | 0.0 | 0.00 | 0.00 | 0.00 | 60 | 1014.2 |
| 20260903234502 | 31 | 0 | 0.0 | 0.0 | 0.00 | 0.00 | 0.00 | 59 | 1014.1 |
| 20260903234022 | 32 | 0 | 0.0 | 0.0 | 0.00 | 0.00 | 0.00 | 58 | 1014.1 |
| 20260903233502 | 32 | 314 | 0.0 | 1.6 | 0.00 | 0.00 | 0.00 | 56 | 1014.2 |
| 20260903233023 | 32 | 313 | 0.0 | 3.2 | 0.00 | 0.00 | 0.00 | 55 | 1014.1 |
| 20260903232501 | 33 | 313 | 0.0 | 3.2 | 0.00 | 0.00 | 0.00 | 55 | 1014.1 |
| 20260903232002 | 33 | 306 | 0.0 | 3.2 | 0.00 | 0.00 | 0.00 | 53 | 1014.1 |
| 20260903231524 | 33 | 280 | 1.6 | 3.2 | 0.00 | 0.00 | 0.00 | 55 | 1014.0 |
| 20260903231002 | 33 | 217 | 1.6 | 3.2 | 0.00 | 0.00 | 0.00 | 52 | 1014.0 |
| 20260903230502 | 33 | 228 | 1.6 | 6.4 | 0.00 | 0.00 | 0.00 | 52 | 1013.9 |
| 20260903230002 | 34 | 224 | 1.6 | 8.0 | 0.00 | 0.00 | 0.00 | 50 | 1014.0 |
| 20260903225523 | 34 | 225 | 1.6 | 8.0 | 0.00 | 0.00 | 0.00 | 50 | 1014.0 |
| 20260903225002 | 34 | 256 | 1.6 | 6.4 | 0.00 | 0.00 | 0.00 | 50 | 1014.0 |
| 20260903224502 | 34 | 272 | 1.6 | 6.4 | 0.00 | 0.00 | 0.00 | 51 | 1014.0 |
| 20260903224002 | 34 | 249 | 1.6 | 12.9 | 0.00 | 0.00 | 0.00 | 50 | 1014.1 |
| 20260903223502 | 34 | 238 | 3.2 | 12.9 | 0.00 | 0.00 | 0.00 | 49 | 1014.0 |
| 20260903223002 | 34 | 241 | 3.2 | 11.3 | 0.00 | 0.00 | 0.00 | 49 | 1013.9 |
| 20260903222502 | 35 | 243 | 3.2 | 8.0 | 0.00 | 0.00 | 0.00 | 48 | 1013.9 |
| 20260903222002 | 35 | 238 | 1.6 | 8.0 | 0.00 | 0.00 | 0.00 | 48 | 1013.8 |
| 20260903221502 | 35 | 232 | 3.2 | 9.7 | 0.00 | 0.00 | 0.00 | 49 | 1013.7 |
| 20260903221002 | 35 | 243 | 3.2 | 9.7 | 0.00 | 0.00 | 0.00 | 48 | 1013.7 |
| 20260903220503 | 35 | 215 | 3.2 | 9.7 | 0.00 | 0.00 | 0.00 | 48 | 1013.7 |
| 20260903220023 | 35 | 215 | 3.2 | 9.7 | 0.00 | 0.00 | 0.00 | 48 | 1013.5 |
| 20260903215502 | 35 | 235 | 3.2 | 8.0 | 0.00 | 0.00 | 0.00 | 47 | 1013.5 |
| 20260903215002 | 35 | 203 | 1.6 | 8.0 | 0.00 | 0.00 | 0.00 | 47 | 1013.6 |
| 20260903214524 | 35 | 202 | 1.6 | 8.0 | 0.00 | 0.00 | 0.00 | 47 | 1013.4 |
| 20260903214023 | 35 | 198 | 1.6 | 8.0 | 0.00 | 0.00 | 0.00 | 48 | 1013.4 |
| 20260903213502 | 35 | 218 | 3.2 | 8.0 | 0.00 | 0.00 | 0.00 | 48 | 1013.4 |
| 20260903213002 | 35 | 247 | 3.2 | 11.3 | 0.00 | 0.00 | 0.00 | 47 | 1013.6 |
| 20260903212502 | 35 | 236 | 1.6 | 11.3 | 0.00 | 0.00 | 0.00 | 47 | 1013.6 |
| 20260903212001 | 35 | 228 | 1.6 | 8.0 | 0.00 | 0.00 | 0.00 | 47 | 1013.6 |
| 20260903211523 | 35 | 232 | 3.2 | 9.7 | 0.00 | 0.00 | 0.00 | 46 | 1013.6 |
| 20260903211002 | 35 | 222 | 3.2 | 9.7 | 0.00 | 0.00 | 0.00 | 45 | 1013.7 |
| 20260903210502 | 35 | 216 | 3.2 | 8.0 | 0.00 | 0.00 | 0.00 | 47 | 1013.6 |
| 20260903210002 | 35 | 222 | 4.8 | 16.1 | 0.00 | 0.00 | 0.00 | 45 | 1013.6 |
| 20260903205502 | 35 | 244 | 3.2 | 16.1 | 0.00 | 0.00 | 0.00 | 46 | 1013.7 |
| 20260903205002 | 35 | 251 | 3.2 | 11.3 | 0.00 | 0.00 | 0.00 | 46 | 1013.7 |
| 20260903204502 | 35 | 235 | 4.8 | 12.9 | 0.00 | 0.00 | 0.00 | 45 | 1013.8 |
| 20260903204003 | 35 | 225 | 4.8 | 12.9 | 0.00 | 0.00 | 0.00 | 44 | 1013.9 |
| 20260903203501 | 35 | 209 | 3.2 | 11.3 | 0.00 | 0.00 | 0.00 | 45 | 1013.9 |
| 20260903203002 | 35 | 212 | 3.2 | 11.3 | 0.00 | 0.00 | 0.00 | 45 | 1014.0 |
| 20260903202502 | 35 | 231 | 3.2 | 9.7 | 0.00 | 0.00 | 0.00 | 46 | 1014.1 |
| 20260903202002 | 35 | 260 | 3.2 | 9.7 | 0.00 | 0.00 | 0.00 | 46 | 1014.1 |
| 20260903201502 | 35 | 272 | 3.2 | 11.3 | 0.00 | 0.00 | 0.00 | 46 | 1014.2 |
| 20260903201002 | 35 | 262 | 3.2 | 11.3 | 0.00 | 0.00 | 0.00 | 46 | 1014.3 |
| 20260903200502 | 35 | 298 | 1.6 | 8.0 | 0.00 | 0.00 | 0.00 | 49 | 1014.3 |
| 20260903200002 | 35 | 231 | 3.2 | 12.9 | 0.00 | 0.00 | 0.00 | 46 | 1014.6 |
| 20260903195502 | 35 | 240 | 4.8 | 12.9 | 0.00 | 0.00 | 0.00 | 44 | 1014.6 |
| 20260903195002 | 35 | 241 | 4.8 | 11.3 | 0.00 | 0.00 | 0.00 | 45 | 1014.7 |
| 20260903194523 | 35 | 231 | 4.8 | 11.3 | 0.00 | 0.00 | 0.00 | 45 | 1014.7 |
| 20260903194023 | 35 | 251 | 4.8 | 14.5 | 0.00 | 0.00 | 0.00 | 45 | 1014.8 |
| 20260903193502 | 35 | 243 | 3.2 | 12.9 | 0.00 | 0.00 | 0.00 | 46 | 1014.8 |
| 20260903193003 | 34 | 215 | 3.2 | 11.3 | 0.00 | 0.00 | 0.00 | 47 | 1014.9 |
| 20260903192502 | 34 | 207 | 3.2 | 11.3 | 0.00 | 0.00 | 0.00 | 48 | 1015.0 |
| 20260903192002 | 34 | 221 | 3.2 | 9.7 | 0.00 | 0.00 | 0.00 | 49 | 1015.0 |
| 20260903191502 | 34 | 203 | 3.2 | 11.3 | 0.00 | 0.00 | 0.00 | 48 | 1015.0 |
| 20260903191003 | 34 | 223 | 3.2 | 14.5 | 0.00 | 0.00 | 0.00 | 48 | 1015.0 |
| 20260903190502 | 34 | 239 | 3.2 | 14.5 | 0.00 | 0.00 | 0.00 | 47 | 1015.1 |
| 20260903190003 | 33 | 231 | 4.8 | 12.9 | 0.00 | 0.00 | 0.00 | 48 | 1015.1 |
| 20260903185523 | 33 | 229 | 3.2 | 12.9 | 0.00 | 0.00 | 0.00 | 47 | 1015.2 |
| 20260903185003 | 33 | 222 | 3.2 | 20.9 | 0.00 | 0.00 | 0.00 | 52 | 1015.2 |
| 20260903184502 | 33 | 236 | 4.8 | 20.9 | 0.00 | 0.00 | 0.00 | 50 | 1015.2 |
| 20260903184002 | 33 | 242 | 3.2 | 11.3 | 0.00 | 0.00 | 0.00 | 49 | 1015.3 |
| 20260903183502 | 33 | 259 | 3.2 | 9.7 | 0.00 | 0.00 | 0.00 | 48 | 1015.2 |
| 20260903183002 | 34 | 257 | 3.2 | 14.5 | 0.00 | 0.00 | 0.00 | 47 | 1015.3 |
| 20260903182523 | 34 | 233 | 1.6 | 14.5 | 0.00 | 0.00 | 0.00 | 49 | 1015.3 |
| 20260903182023 | 34 | 260 | 3.2 | 12.9 | 0.00 | 0.00 | 0.00 | 49 | 1015.2 |
| 20260903181502 | 34 | 269 | 3.2 | 12.9 | 0.00 | 0.00 | 0.00 | 48 | 1015.3 |
| 20260903181023 | 34 | 283 | 3.2 | 12.9 | 0.00 | 0.00 | 0.00 | 49 | 1015.3 |
| 20260903180502 | 33 | 259 | 4.8 | 17.7 | 0.00 | 0.00 | 0.00 | 48 | 1015.4 |
| 20260903180003 | 33 | 250 | 4.8 | 17.7 | 0.00 | 0.00 | 0.00 | 47 | 1015.4 |
| 20260903175502 | 33 | 246 | 4.8 | 16.1 | 0.00 | 0.00 | 0.00 | 48 | 1015.4 |
| 20260903175003 | 33 | 242 | 4.8 | 16.1 | 0.00 | 0.00 | 0.00 | 48 | 1015.4 |
| 20260903174502 | 33 | 255 | 4.8 | 12.9 | 0.00 | 0.00 | 0.00 | 48 | 1015.6 |
| 20260903174002 | 33 | 248 | 4.8 | 12.9 | 0.00 | 0.00 | 0.00 | 50 | 1015.5 |
| 20260903173502 | 33 | 242 | 4.8 | 11.3 | 0.00 | 0.00 | 0.00 | 49 | 1015.6 |
| 20260903173002 | 33 | 193 | 3.2 | 19.3 | 0.00 | 0.00 | 0.00 | 52 | 1015.6 |
| 20260903172503 | 33 | 178 | 4.8 | 19.3 | 0.00 | 0.00 | 0.00 | 51 | 1015.7 |
| 20260903172023 | 33 | 180 | 3.2 | 11.3 | 0.00 | 0.00 | 0.00 | 51 | 1015.8 |
| 20260903171502 | 33 | 198 | 3.2 | 11.3 | 0.00 | 0.00 | 0.00 | 53 | 1015.7 |
| 20260903171002 | 33 | 232 | 3.2 | 11.3 | 0.00 | 0.00 | 0.00 | 53 | 1015.8 |
| 20260903170502 | 33 | 209 | 3.2 | 8.0 | 0.00 | 0.00 | 0.00 | 51 | 1015.9 |
| 20260903170002 | 33 | 211 | 3.2 | 8.0 | 0.00 | 0.00 | 0.00 | 52 | 1015.9 |
| 20260903165502 | 33 | 251 | 3.2 | 8.0 | 0.00 | 0.00 | 0.00 | 53 | 1015.9 |
| 20260903165002 | 33 | 226 | 3.2 | 9.7 | 0.00 | 0.00 | 0.00 | 52 | 1016.0 |
| 20260903164502 | 33 | 199 | 3.2 | 9.7 | 0.00 | 0.00 | 0.00 | 55 | 1016.1 |
| 20260903164002 | 33 | 207 | 3.2 | 8.0 | 0.00 | 0.00 | 0.00 | 53 | 1016.2 |
| 20260903163523 | 33 | 163 | 3.2 | 11.3 | 0.00 | 0.00 | 0.00 | 53 | 1016.2 |
| 20260903163002 | 33 | 169 | 3.2 | 11.3 | 0.00 | 0.00 | 0.00 | 53 | 1016.2 |
| 20260903162503 | 33 | 209 | 3.2 | 11.3 | 0.00 | 0.00 | 0.00 | 55 | 1016.3 |
| 20260903162002 | 32 | 217 | 3.2 | 11.3 | 0.00 | 0.00 | 0.00 | 55 | 1016.4 |
| 20260903161503 | 32 | 217 | 3.2 | 11.3 | 0.00 | 0.00 | 0.00 | 57 | 1016.3 |
| 20260903161002 | 32 | 230 | 3.2 | 11.3 | 0.00 | 0.00 | 0.00 | 57 | 1016.5 |
| 20260903160502 | 32 | 246 | 3.2 | 11.3 | 0.00 | 0.00 | 0.00 | 55 | 1016.5 |
| 20260903160003 | 32 | 211 | 3.2 | 11.3 | 0.00 | 0.00 | 0.00 | 56 | 1016.5 |
| 20260903155502 | 32 | 233 | 3.2 | 8.0 | 0.00 | 0.00 | 0.00 | 58 | 1016.5 |
| 20260903155003 | 32 | 279 | 1.6 | 8.0 | 0.00 | 0.00 | 0.00 | 60 | 1016.5 |
| 20260903154502 | 32 | 248 | 3.2 | 8.0 | 0.00 | 0.00 | 0.00 | 59 | 1016.6 |
| 20260903154002 | 31 | 243 | 4.8 | 11.3 | 0.00 | 0.00 | 0.00 | 59 | 1016.5 |
| 20260903153503 | 31 | 255 | 4.8 | 11.3 | 0.00 | 0.00 | 0.00 | 59 | 1016.5 |
| 20260903153002 | 31 | 267 | 3.2 | 11.3 | 0.00 | 0.00 | 0.00 | 59 | 1016.5 |
| 20260903152502 | 31 | 251 | 3.2 | 14.5 | 0.00 | 0.00 | 0.00 | 61 | 1016.4 |
| 20260903152002 | 31 | 248 | 3.2 | 14.5 | 0.00 | 0.00 | 0.00 | 61 | 1016.5 |
| 20260903151502 | 31 | 254 | 3.2 | 8.0 | 0.00 | 0.00 | 0.00 | 61 | 1016.5 |
| 20260903151002 | 31 | 238 | 3.2 | 8.0 | 0.00 | 0.00 | 0.00 | 62 | 1016.5 |
| 20260903150502 | 31 | 185 | 3.2 | 11.3 | 0.00 | 0.00 | 0.00 | 63 | 1016.4 |
| 20260903150003 | 30 | 194 | 3.2 | 11.3 | 0.00 | 0.00 | 0.00 | 62 | 1016.4 |
| 20260903145502 | 30 | 254 | 3.2 | 6.4 | 0.00 | 0.00 | 0.00 | 62 | 1016.5 |
| 20260903145024 | 30 | 277 | 3.2 | 9.7 | 0.00 | 0.00 | 0.00 | 62 | 1016.4 |
| 20260903144502 | 30 | 283 | 1.6 | 9.7 | 0.00 | 0.00 | 0.00 | 62 | 1016.4 |
| 20260903144003 | 30 | 276 | 1.6 | 6.4 | 0.00 | 0.00 | 0.00 | 64 | 1016.4 |
| 20260903143502 | 30 | 258 | 3.2 | 9.7 | 0.00 | 0.00 | 0.00 | 66 | 1016.4 |
| 20260903143003 | 30 | 267 | 3.2 | 9.7 | 0.00 | 0.00 | 0.00 | 63 | 1016.3 |
| 20260903142503 | 30 | 286 | 3.2 | 9.7 | 0.00 | 0.00 | 0.00 | 63 | 1016.4 |
| 20260903142002 | 29 | 261 | 3.2 | 6.4 | 0.00 | 0.00 | 0.00 | 65 | 1016.3 |
| 20260903141503 | 29 | 260 | 1.6 | 6.4 | 0.00 | 0.00 | 0.00 | 67 | 1016.4 |
| 20260903141002 | 29 | 272 | 1.6 | 4.8 | 0.00 | 0.00 | 0.00 | 68 | 1016.4 |
| 20260903140503 | 28 | 261 | 1.6 | 6.4 | 0.00 | 0.00 | 0.00 | 70 | 1016.4 |
| 20260903140002 | 28 | 255 | 1.6 | 6.4 | 0.00 | 0.00 | 0.00 | 68 | 1016.5 |
| 20260903135503 | 28 | 262 | 1.6 | 4.8 | 0.00 | 0.00 | 0.00 | 68 | 1016.6 |
| 20260903135002 | 28 | 271 | 1.6 | 6.4 | 0.00 | 0.00 | 0.00 | 69 | 1016.5 |
| 20260903134503 | 28 | 255 | 1.6 | 6.4 | 0.00 | 0.00 | 0.00 | 72 | 1016.6 |
| 20260903134023 | 28 | 265 | 1.6 | 6.4 | 0.00 | 0.00 | 0.00 | 70 | 1016.6 |
| 20260903133502 | 27 | 306 | 1.6 | 3.2 | 0.00 | 0.00 | 0.00 | 71 | 1016.6 |
| 20260903133002 | 27 | 302 | 0.0 | 3.2 | 0.00 | 0.00 | 0.00 | 72 | 1016.7 |
| 20260903132502 | 27 | 263 | 0.0 | 3.2 | 0.00 | 0.00 | 0.00 | 73 | 1016.8 |
| 20260903132003 | 27 | 255 | 1.6 | 6.4 | 0.00 | 0.00 | 0.00 | 72 | 1016.8 |
| 20260903131502 | 27 | 256 | 1.6 | 6.4 | 0.00 | 0.00 | 0.00 | 73 | 1016.8 |
| 20260903131003 | 27 | 237 | 1.6 | 6.4 | 0.00 | 0.00 | 0.00 | 73 | 1016.8 |
| 20260903130502 | 26 | 227 | 3.2 | 6.4 | 0.00 | 0.00 | 0.00 | 74 | 1016.9 |
| 20260903130002 | 26 | 226 | 3.2 | 6.4 | 0.00 | 0.00 | 0.00 | 74 | 1016.9 |
| 20260903125503 | 26 | 227 | 1.6 | 6.4 | 0.00 | 0.00 | 0.00 | 76 | 1016.9 |
| 20260903125002 | 26 | 232 | 1.6 | 6.4 | 0.00 | 0.00 | 0.00 | 76 | 1016.9 |
| 20260903124523 | 25 | 232 | 0.0 | 4.8 | 0.00 | 0.00 | 0.00 | 78 | 1016.9 |
| 20260903124002 | 25 | 225 | 0.0 | 4.8 | 0.00 | 0.00 | 0.00 | 78 | 1016.9 |
| 20260903123523 | 25 | 238 | 0.0 | 4.8 | 0.00 | 0.00 | 0.00 | 78 | 1016.9 |
| 20260903123003 | 25 | 271 | 0.0 | 3.2 | 0.00 | 0.00 | 0.00 | 80 | 1017.0 |
| 20260903122523 | 25 | 271 | 0.0 | 3.2 | 0.00 | 0.00 | 0.00 | 80 | 1017.0 |
| 20260903122024 | 25 | 278 | 0.0 | 4.8 | 0.00 | 0.00 | 0.00 | 81 | 1017.0 |
| 20260903121523 | 24 | 290 | 0.0 | 4.8 | 0.00 | 0.00 | 0.00 | 80 | 1017.0 |
| 20260903121003 | 24 | 18 | 0.0 | 1.6 | 0.00 | 0.00 | 0.00 | 81 | 1016.9 |
| 20260903120523 | 24 | 18 | 0.0 | 1.6 | 0.00 | 0.00 | 0.00 | 81 | 1016.9 |
| 20260903120003 | 24 | 19 | 0.0 | 1.6 | 0.00 | 0.00 | 0.00 | 81 | 1016.9 |
| 20260903115502 | 24 | 20 | 0.0 | 1.6 | 0.00 | 0.00 | 0.00 | 81 | 1016.8 |
| 20260903115002 | 24 | 24 | 0.0 | 1.6 | 0.00 | 0.00 | 0.00 | 81 | 1016.8 |
| 20260903114523 | 24 | 24 | 0.0 | 1.6 | 0.00 | 0.00 | 0.00 | 81 | 1016.7 |
| 20260903114002 | 24 | 24 | 0.0 | 1.6 | 0.00 | 0.00 | 0.00 | 81 | 1016.8 |
| 20260903113503 | 24 | 24 | 0.0 | 1.6 | 0.00 | 0.00 | 0.00 | 81 | 1016.8 |
| 20260903113002 | 24 | 351 | 0.0 | 3.2 | 0.00 | 0.00 | 0.00 | 81 | 1016.7 |
| 20260903112503 | 24 | 303 | 0.0 | 3.2 | 0.00 | 0.00 | 0.00 | 81 | 1016.6 |
| 20260903112003 | 24 | 284 | 0.0 | 3.2 | 0.00 | 0.00 | 0.00 | 81 | 1016.6 |
| 20260903111524 | 23 | 284 | 0.0 | 3.2 | 0.00 | 0.00 | 0.00 | 81 | 1016.5 |
| 20260903111002 | 24 | 284 | 0.0 | 1.6 | 0.00 | 0.00 | 0.00 | 81 | 1016.5 |
| 20260903110502 | 24 | 284 | 0.0 | 1.6 | 0.00 | 0.00 | 0.00 | 81 | 1016.5 |
| 20260903110003 | 24 | 0 | 0.0 | 0.0 | 0.00 | 0.00 | 0.00 | 81 | 1016.4 |
| 20260903105523 | 24 | 284 | 0.0 | 3.2 | 0.00 | 0.00 | 0.00 | 81 | 1016.3 |
| 20260903105003 | 24 | 284 | 0.0 | 3.2 | 0.00 | 0.00 | 0.00 | 81 | 1016.3 |
| 20260903104502 | 24 | 284 | 0.0 | 1.6 | 0.00 | 0.00 | 0.00 | 81 | 1016.2 |
| 20260903104003 | 24 | 284 | 0.0 | 1.6 | 0.00 | 0.00 | 0.00 | 80 | 1016.2 |
| 20260903103502 | 24 | 284 | 0.0 | 1.6 | 0.00 | 0.00 | 0.00 | 80 | 1016.2 |
| 20260903103002 | 24 | 284 | 0.0 | 1.6 | 0.00 | 0.00 | 0.00 | 80 | 1016.2 |
| 20260903102502 | 24 | 283 | 0.0 | 3.2 | 0.00 | 0.00 | 0.00 | 80 | 1016.1 |
| 20260903102002 | 24 | 283 | 0.0 | 3.2 | 0.00 | 0.00 | 0.00 | 80 | 1016.1 |
| 20260903101523 | 24 | 281 | 0.0 | 1.6 | 0.00 | 0.00 | 0.00 | 81 | 1016.1 |
| 20260903101003 | 24 | 281 | 0.0 | 1.6 | 0.00 | 0.00 | 0.00 | 81 | 1016.2 |
| 20260903100502 | 24 | 281 | 0.0 | 1.6 | 0.00 | 0.00 | 0.00 | 81 | 1016.1 |
| 20260903100003 | 24 | 281 | 0.0 | 1.6 | 0.00 | 0.00 | 0.00 | 81 | 1016.2 |
| 20260903095523 | 24 | 281 | 0.0 | 1.6 | 0.00 | 0.00 | 0.00 | 81 | 1016.1 |
| 20260903095003 | 24 | 281 | 0.0 | 1.6 | 0.00 | 0.00 | 0.00 | 81 | 1016.1 |
| 20260903094503 | 24 | 281 | 0.0 | 1.6 | 0.00 | 0.00 | 0.00 | 81 | 1016.1 |
| 20260903094003 | 24 | 281 | 0.0 | 3.2 | 0.00 | 0.00 | 0.00 | 81 | 1016.1 |
| 20260903093523 | 24 | 281 | 0.0 | 3.2 | 0.00 | 0.00 | 0.00 | 81 | 1016.0 |
| 20260903093002 | 24 | 285 | 0.0 | 3.2 | 0.00 | 0.00 | 0.00 | 82 | 1016.1 |
| 20260903092524 | 24 | 290 | 0.0 | 3.2 | 0.00 | 0.00 | 0.00 | 82 | 1016.0 |
| 20260903092024 | 24 | 290 | 0.0 | 1.6 | 0.00 | 0.00 | 0.00 | 82 | 1016.1 |
| 20260903091502 | 24 | 290 | 0.0 | 1.6 | 0.00 | 0.00 | 0.00 | 82 | 1016.0 |
| 20260903091003 | 24 | 290 | 0.0 | 1.6 | 0.00 | 0.00 | 0.00 | 82 | 1016.0 |
| 20260903090523 | 24 | 290 | 0.0 | 1.6 | 0.00 | 0.00 | 0.00 | 82 | 1016.0 |
| 20260903090003 | 24 | 0 | 0.0 | 0.0 | 0.00 | 0.00 | 0.00 | 82 | 1016.1 |
| 20260903085502 | 24 | 0 | 0.0 | 0.0 | 0.00 | 0.00 | 0.00 | 82 | 1016.1 |
| 20260903085003 | 24 | 0 | 0.0 | 0.0 | 0.00 | 0.00 | 0.00 | 83 | 1016.1 |
| 20260903084502 | 24 | 0 | 0.0 | 0.0 | 0.00 | 0.00 | 0.00 | 82 | 1016.0 |
| 20260903084003 | 24 | 0 | 0.0 | 0.0 | 0.00 | 0.00 | 0.00 | 82 | 1016.0 |
| 20260903083503 | 24 | 0 | 0.0 | 0.0 | 0.00 | 0.00 | 0.00 | 82 | 1015.9 |
| 20260903083002 | 24 | 290 | 0.0 | 1.6 | 0.00 | 0.00 | 0.00 | 82 | 1015.9 |
| 20260903082503 | 24 | 290 | 0.0 | 1.6 | 0.00 | 0.00 | 0.00 | 82 | 1015.9 |
| 20260903082002 | 24 | 290 | 0.0 | 1.6 | 0.00 | 0.00 | 0.00 | 82 | 1015.9 |
| 20260903081503 | 24 | 0 | 0.0 | 0.0 | 0.00 | 0.00 | 0.00 | 82 | 1015.9 |
| 20260903081002 | 24 | 290 | 0.0 | 1.6 | 0.00 | 0.00 | 0.00 | 82 | 1015.8 |
| 20260903080503 | 24 | 290 | 0.0 | 1.6 | 0.00 | 0.00 | 0.00 | 82 | 1015.9 |
| 20260903080003 | 24 | 290 | 0.0 | 1.6 | 0.00 | 0.00 | 0.00 | 82 | 1015.9 |
| 20260903075503 | 24 | 290 | 0.0 | 1.6 | 0.00 | 0.00 | 0.00 | 82 | 1015.8 |
| 20260903075025 | 24 | 290 | 0.0 | 1.6 | 0.00 | 0.00 | 0.00 | 82 | 1015.8 |
| 20260903074502 | 24 | 290 | 0.0 | 1.6 | 0.00 | 0.00 | 0.00 | 82 | 1015.8 |
| 20260903074024 | 25 | 290 | 0.0 | 1.6 | 0.00 | 0.00 | 0.00 | 81 | 1015.8 |
| 20260903073502 | 25 | 290 | 0.0 | 1.6 | 0.00 | 0.00 | 0.00 | 81 | 1015.8 |
| 20260903073003 | 25 | 290 | 0.0 | 1.6 | 0.00 | 0.00 | 0.00 | 81 | 1015.8 |
| 20260903072524 | 25 | 0 | 0.0 | 0.0 | 0.00 | 0.00 | 0.00 | 81 | 1015.7 |
| 20260903072024 | 25 | 0 | 0.0 | 0.0 | 0.00 | 0.00 | 0.00 | 81 | 1015.7 |
| 20260903071502 | 25 | 0 | 0.0 | 0.0 | 0.00 | 0.00 | 0.00 | 81 | 1015.8 |
| 20260903071003 | 25 | 0 | 0.0 | 0.0 | 0.00 | 0.00 | 0.00 | 81 | 1015.8 |
| 20260903070502 | 25 | 0 | 0.0 | 0.0 | 0.00 | 0.00 | 0.00 | 81 | 1015.7 |
| 20260903070002 | 25 | 0 | 0.0 | 0.0 | 0.00 | 0.00 | 0.00 | 81 | 1015.8 |
| 20260903065502 | 25 | 0 | 0.0 | 0.0 | 0.00 | 0.00 | 0.00 | 81 | 1015.8 |
| 20260903065002 | 25 | 0 | 0.0 | 0.0 | 0.00 | 0.00 | 0.00 | 81 | 1015.7 |
| 20260903064502 | 25 | 0 | 0.0 | 0.0 | 0.00 | 0.00 | 0.00 | 81 | 1015.8 |
| 20260903064003 | 25 | 0 | 0.0 | 0.0 | 0.00 | 0.00 | 0.00 | 80 | 1015.8 |
| 20260903063503 | 25 | 0 | 0.0 | 0.0 | 0.00 | 0.00 | 0.00 | 80 | 1015.8 |
| 20260903063003 | 25 | 290 | 0.0 | 1.6 | 0.00 | 0.00 | 0.00 | 80 | 1015.8 |
| 20260903062503 | 25 | 290 | 0.0 | 1.6 | 0.00 | 0.00 | 0.00 | 80 | 1015.8 |
| 20260903062002 | 25 | 290 | 0.0 | 1.6 | 0.00 | 0.00 | 0.00 | 80 | 1015.9 |
| 20260903061503 | 25 | 290 | 0.0 | 1.6 | 0.00 | 0.00 | 0.00 | 80 | 1015.8 |
| 20260903061003 | 25 | 0 | 0.0 | 0.0 | 0.00 | 0.00 | 0.00 | 80 | 1015.7 |
| 20260903060503 | 25 | 0 | 0.0 | 0.0 | 0.00 | 0.00 | 0.00 | 80 | 1015.7 |
| 20260903060003 | 25 | 290 | 0.0 | 1.6 | 0.00 | 0.00 | 0.00 | 80 | 1015.7 |
| 20260903055523 | 25 | 290 | 0.0 | 1.6 | 0.00 | 0.00 | 0.00 | 80 | 1015.8 |
| 20260903055003 | 25 | 290 | 0.0 | 1.6 | 0.00 | 0.00 | 0.00 | 80 | 1015.7 |
| 20260903054503 | 25 | 290 | 0.0 | 1.6 | 0.00 | 0.00 | 0.00 | 80 | 1015.7 |
| 20260903054003 | 25 | 290 | 0.0 | 1.6 | 0.00 | 0.00 | 0.00 | 79 | 1015.8 |
| 20260903053503 | 25 | 290 | 0.0 | 1.6 | 0.00 | 0.00 | 0.00 | 79 | 1015.7 |
| 20260903053003 | 25 | 290 | 0.0 | 1.6 | 0.00 | 0.00 | 0.00 | 79 | 1015.7 |
| 20260903052524 | 25 | 0 | 0.0 | 0.0 | 0.00 | 0.00 | 0.00 | 79 | 1015.7 |
| 20260903052002 | 25 | 290 | 0.0 | 1.6 | 0.00 | 0.00 | 0.00 | 78 | 1015.6 |
| 20260903051503 | 25 | 290 | 0.0 | 1.6 | 0.00 | 0.00 | 0.00 | 78 | 1015.6 |
| 20260903051002 | 26 | 290 | 0.0 | 1.6 | 0.00 | 0.00 | 0.00 | 78 | 1015.6 |
| 20260903050524 | 26 | 290 | 0.0 | 1.6 | 0.00 | 0.00 | 0.00 | 78 | 1015.6 |
| 20260903050003 | 26 | 290 | 0.0 | 1.6 | 0.00 | 0.00 | 0.00 | 77 | 1015.6 |
| 20260903045503 | 26 | 290 | 0.0 | 1.6 | 0.00 | 0.00 | 0.00 | 77 | 1015.6 |
| 20260903045027 | 26 | 290 | 0.0 | 1.6 | 0.00 | 0.00 | 0.00 | 77 | 1015.6 |
| 20260903044503 | 26 | 290 | 0.0 | 1.6 | 0.00 | 0.00 | 0.00 | 77 | 1015.5 |
| 20260903044003 | 26 | 0 | 0.0 | 0.0 | 0.00 | 0.00 | 0.00 | 77 | 1015.5 |
| 20260903043502 | 26 | 0 | 0.0 | 0.0 | 0.00 | 0.00 | 0.00 | 77 | 1015.5 |
| 20260903043003 | 26 | 290 | 0.0 | 1.6 | 0.00 | 0.00 | 0.00 | 77 | 1015.5 |
| 20260903042503 | 26 | 290 | 0.0 | 1.6 | 0.00 | 0.00 | 0.00 | 77 | 1015.4 |
| 20260903042003 | 26 | 290 | 0.0 | 1.6 | 0.00 | 0.00 | 0.00 | 77 | 1015.5 |
| 20260903041503 | 26 | 290 | 0.0 | 1.6 | 0.00 | 0.00 | 0.00 | 77 | 1015.5 |
| 20260903041003 | 26 | 290 | 0.0 | 1.6 | 0.00 | 0.00 | 0.00 | 77 | 1015.5 |
| 20260903040524 | 26 | 290 | 0.0 | 1.6 | 0.00 | 0.00 | 0.00 | 76 | 1015.5 |
| 20260903040024 | 26 | 290 | 0.0 | 1.6 | 0.00 | 0.00 | 0.00 | 76 | 1015.5 |
| 20260903035502 | 26 | 290 | 0.0 | 1.6 | 0.00 | 0.00 | 0.00 | 76 | 1015.5 |
| 20260903035003 | 26 | 0 | 0.0 | 0.0 | 0.00 | 0.00 | 0.00 | 75 | 1015.5 |
| 20260903034502 | 26 | 290 | 0.0 | 1.6 | 0.00 | 0.00 | 0.00 | 75 | 1015.5 |
| 20260903034003 | 26 | 290 | 0.0 | 1.6 | 0.00 | 0.00 | 0.00 | 75 | 1015.5 |
| 20260903033524 | 26 | 290 | 0.0 | 1.6 | 0.00 | 0.00 | 0.00 | 75 | 1015.6 |
| 20260903033003 | 26 | 0 | 0.0 | 0.0 | 0.00 | 0.00 | 0.00 | 74 | 1015.5 |
| 20260903032503 | 26 | 0 | 0.0 | 0.0 | 0.00 | 0.00 | 0.00 | 74 | 1015.6 |
| 20260903032003 | 26 | 291 | 0.0 | 3.2 | 0.00 | 0.00 | 0.00 | 74 | 1015.6 |
| 20260903031502 | 27 | 293 | 0.0 | 3.2 | 0.00 | 0.00 | 0.00 | 73 | 1015.6 |
| 20260903031003 | 27 | 300 | 0.0 | 1.6 | 0.00 | 0.00 | 0.00 | 73 | 1015.6 |
| 20260903030524 | 27 | 300 | 0.0 | 1.6 | 0.00 | 0.00 | 0.00 | 72 | 1015.7 |
| 20260903030003 | 27 | 300 | 0.0 | 3.2 | 0.00 | 0.00 | 0.00 | 72 | 1015.7 |
| 20260903025503 | 27 | 300 | 0.0 | 3.2 | 0.00 | 0.00 | 0.00 | 72 | 1015.8 |
| 20260903025024 | 27 | 300 | 0.0 | 3.2 | 0.00 | 0.00 | 0.00 | 72 | 1015.8 |
| 20260903024503 | 27 | 300 | 0.0 | 3.2 | 0.00 | 0.00 | 0.00 | 71 | 1015.8 |
| 20260903024003 | 27 | 300 | 0.0 | 3.2 | 0.00 | 0.00 | 0.00 | 70 | 1015.8 |
| 20260903023502 | 27 | 300 | 0.0 | 3.2 | 0.00 | 0.00 | 0.00 | 70 | 1015.9 |
| 20260903023003 | 27 | 300 | 0.0 | 1.6 | 0.00 | 0.00 | 0.00 | 70 | 1015.9 |
| 20260903022503 | 27 | 300 | 0.0 | 3.2 | 0.00 | 0.00 | 0.00 | 70 | 1015.9 |